Regional Weather Roundup
Issued by NWS

Home | Current Version | Previous Version | Text Only | Print | Product List | Glossary On
Versions: 1 2 3 4 5 6 7 8 9 10 11 12 13 14 15 16 17 18 19 20 21 22 23 24 25 26 27 28 29 30 31 32 33 34 35 36 37 38 39 40 41 42 43 44 45 46 47 48 49 50
000
ASUS46 KLOX 022312
RWRCA

SOUTHERN CALIFORNIA WEATHER ROUNDUP
NATIONAL WEATHER SERVICE OXNARD CALIFORNIA
300 PM PST MON MAR 02 2015

NOTE: "FAIR" INDICATES FEW OR NO CLOUDS BELOW 12,000 FEET WITH NO
SIGNIFICANT WEATHER AND/OR OBSTRUCTIONS TO VISIBILITY.

  -  STATIONS PRECEEDED BY AN ASTERISK (*) ARE NOT NWS OR FAA
     STATIONS AND ARE NOT SUBJECT TO NWS AND FAA QUALITY CONTROL.

CAZ041-042-087-030000-
LA AND ORANGE COUNTY COASTAL AREAS


CITY           SKY/WX    TMP DP  RH WIND       PRES   REMARKS
L.A. DOWNTOWN  MOSUNNY   62  42  47 CALM      29.89S
L.A. AIRPORT   MOSUNNY   59  42  53 W12       29.90S
LONG BEACH     MOSUNNY   60  44  55 S10       29.91S

CITY           SKY/WX    TMP DP  RH WIND       PRES   REMARKS
AVALON           N/A     59 N/A N/A MISG        N/A
FULLERTON      SUNNY     61  41  47 S9        29.90S
*GETTY CENTER    N/A    N/A N/A N/A S12         N/A
HAWTHORNE      PTSUNNY   62  42  47 S8        29.90S
*LOS ALAMITOS  MOSUNNY   60  47  61 S12       29.91S
*REDONDO BEACH   N/A     63  43  48 SW2       29.91R
SANTA ANA      MOSUNNY   62  43  49 S10       29.92R
STA MONICA APT MOSUNNY   60  42  51 SW12      29.90S
*UCLA            N/A     59  41  51 SW6       29.87S

$$

CAZ547-548-048-030000-
LA COUNTY VALLEYS AND INLAND EMPIRE


CITY           SKY/WX    TMP DP  RH WIND       PRES   REMARKS
BURBANK        PTSUNNY   56  42  59 SE6       29.88F
VAN NUYS       LGT RAIN  54  44  69 SW5       29.88S

CITY           SKY/WX    TMP DP  RH WIND       PRES   REMARKS
CORONA AIRPORT PTCLDY    58  40  51 CALM      29.91S
CHINO          PTSUNNY   59  42  53 SW7       29.91S
MARCH AFB      MOSUNNY   52  43  71 E10       29.91S
*NORTHRIDGE      N/A     52  43  71 E2          N/A
ONTARIO        MOSUNNY   56  39  53 VRB3      29.90S
*PASADENA        N/A     55  45  67 E3          N/A
POMONA         PTSUNNY   55  39  54 VRB5      29.92S
RIVERSIDE      PTSUNNY   56  40  55 SW5       29.91S
SAN BERNARDINO PTSUNNY   54  37  54 E6        29.92S
*SAN GABRIEL     N/A     58  40  50 CALM      29.86S
*WHITEMAN AP   PTSUNNY   54  39  58 MISG      29.91F
*WOODLAND HILL   N/A     54  43  66 SE6         N/A

$$

CAZ054-055-030000-
LA AND SAN BERNARDINO COUNTY MOUNTAINS


CITY           SKY/WX    TMP DP  RH WIND       PRES   REMARKS
*BIG BEAR AIRP MOCLDY    30  25  80 W8G16     29.85R WCI  23
MT WILSON NWS    N/A     32  34 100 SW9         N/A  WCI  24
SANDBERG       CLOUDY    41  36  82 S13       29.83S WCI  34

$$

CAZ028-029-059-060-099-030000-
ANTELOPE VALLEY AND SURROUNDING AREAS


CITY           SKY/WX    TMP DP  RH WIND       PRES   REMARKS
LANCASTER      MOSUNNY   52  36  54 SW22      29.85R
PALMDALE       PTSUNNY   50  37  61 W22       29.84R

CITY           SKY/WX    TMP DP  RH WIND       PRES   REMARKS
29 PALMS       PTSUNNY   55  37  50 SW23G29   29.90S
BARSTOW/DAGGET MOSUNNY   60  28  29 W13G20    29.80F
BISHOP         MOSUNNY   52  24  33 SE14      29.75R
CHINA LAKE     MOSUNNY   58  31  35 SW13G22   29.76F
EDWARDS AFB    MOSUNNY   56  33  41 SW22      29.80R
MOJAVE         CLOUDY    50  36  57 SW16      29.82R
NEEDLES        MOSUNNY   64  38  38 SW15G22   29.84S
VICTORVILLE    PTSUNNY   52  34  50 S17       29.83R

$$

CAZ039-040-030000-
VENTURA AND SANTA BARBARA COUNTY COAST


CITY           SKY/WX    TMP DP  RH WIND       PRES   REMARKS
CAMARILLO      CLOUDY    59  44  57 W9        29.88S
OXNARD AIRPORT MOSUNNY   60  44  55 W8        29.89S
*POINT MUGU    MOSUNNY   62  48  60 W7        29.90S
SBA APT/GOLETA MOSUNNY   58  44  60 NW3       29.88S
*SANTA BARBARA   N/A     63  45  52 CALM      29.95F
*VENTURA         N/A     60  43  52 CALM      29.93S

$$

CAZ044-045-030000-
VENTURA COUNTY VALLEYS


CITY           SKY/WX    TMP DP  RH WIND       PRES   REMARKS
*SIMI VALLEY     N/A     53  48  86 CALM      29.88S
*OJAI            N/A     54  47  79 E2        29.85F
*FILLMORE        N/A     51  49  90 CALM      29.80S

$$

CAZ053-030000-
VENTURA COUNTY MOUNTAINS


CITY           SKY/WX    TMP DP  RH WIND       PRES   REMARKS
*LOCKWOOD VLY    N/A     43 -99   0 MISG        N/A
*ROSE VALLEY     N/A     45  41  87 MISG        N/A

$$

CAZ034-035-036-030000-
CENTRAL COAST AND SANTA YNEZ VALLEY


CITY           SKY/WX    TMP DP  RH WIND       PRES   REMARKS
SAN LUIS OBISP PTSUNNY   57  45  64 S7        29.86S
SANTA MARIA    PTSUNNY   57  46  66 S9        29.88F

CITY           SKY/WX    TMP DP  RH WIND       PRES   REMARKS
*CAL POLY SLO    N/A     61  48  63 SE9         N/A
*LOMPOC        PTSUNNY   57  46  67 W5        29.89S
*PISMO BEACH     N/A     57  49  74 SW13      29.88S
*SANTA YNEZ    PTSUNNY   54  43  66 SE6       29.88F

$$

CAZ037-038-051-030000-
SAN LUIS OBISPO COUNTY INTERIOR AND CUYAMA VALLEY


CITY           SKY/WX    TMP DP  RH WIND       PRES   REMARKS
*CUYAMA          N/A     52  38  59 S3        29.84F
PASO ROBLES    MOSUNNY   59  38  45 SW15      29.83S

$$

CAZ032-033-061-030000-
SOUTHERN DESERTS


CITY           SKY/WX    TMP DP  RH WIND       PRES   REMARKS
BLYTHE         LGT RAIN  59  48  67 W28       29.90R
IMPERIAL       PTSUNNY   62  45  53 W15       29.89F
PALM SPRINGS   MOSUNNY   56  50  80 NW10      29.89R
THERMAL        CLOUDY    61  44  53 SE14      29.87R

$$

ELSEWHERE ACROSS THE WESTERN UNITED STATES AND MEXICO


CITY           SKY/WX    TMP DP  RH WIND       PRES   REMARKS
DENVER, CO     PTSUNNY   33  23  66 N7        29.66F HAZE    WCI  27
GRAND CANYON,  SNOW      31  30  96 SW12G22   29.83R VSB 1/4 WCI  22
HONOLULU, HI   MOSUNNY   82  64  54 NE14G22   30.00F
KAHULUI, MAUI  MOSUNNY   82  70  65 NE20      30.01F
LAKE TAHOE, CA FLURRIES  38  23  55 VRB3      29.77R
LAS VEGAS, NV  PTSUNNY   58  32  37 SW20G29   29.75R
MAMMOTH LAKES, PTSUNNY   37  25  60 SE8       29.75S WCI  31
MEXICO CITY, M SUNNY     79  27  14 SE9       30.21F
PHOENIX, AZ    CLOUDY    54  48  80 CALM      29.93R
PORTLAND, OR   MOSUNNY   55  38  52 W13       29.96F
RENO, NV       PTSUNNY   49  22  34 W12       29.77R
SALT LAKE CITY CLOUDY    41  35  79 N12       29.61F WCI  34
SAN DIEGO, CA  PTSUNNY   59  48  67 CALM      29.96F
SAN FRANCISCO, PTSUNNY   61  43  51 SW9G25    29.81R
SAN JOSE, CA   LGT RAIN  56  44  64 S5        29.81R
SEATTLE, WA    MOSUNNY   51  34  52 N17       30.02F
TIJUANA, MEX   LGT RAIN  57  41  54 W16       29.97R

$$

STATION/POSITION TIME  TEMP    WIND        PRES    VSBY  WAVE
                       AIR SEA DIR/SP/G                  HT/PER
                 (UTC) (F)     (DEG/KT/KT) (MB)    (MI)  (FT/S)
POINT ARGUELLO B NOT AVBL
WEST SANTA BARBA 2300   56 60  210/  4/  8 1011.5F         6/10
POINT CONCEPTION NOT AVBL
EAST SANTA BARBA NOT AVBL
SANTA MONICA BAY 2300   56 63  230/  2/  2 1012.8S         2/11


USA.gov is the U.S. government's official web portal to all federal, state and local government web resources and services.